Weather in Krasovka

Russia / Omsk Oblast     54°55′53″N   75°10′08″E
temp.,
°C
wind,
m/s
gust,
m/s
humid.,
%
clouds,
%
prec.,
mm/h
press.,
hPa
HPBL,
m
27 january, thu
thu2700:00−24sw22100100 0.0 10319
03:00−25sw22100100 0.0 10329
06:00−25ssw22100100 0.0 103322
09:00−23ssw24100100 0.0 103442
12:00−17s3499100 0.1 1033104
15:00−14ssw3596100 0.0 1032159
18:00−17s3597100 0.0 103371
21:00−18s369772 0.0 103261
28 january, fri
fri2800:00−20s359859 0.0 103156
03:00−20s3598100 0.0 103161
06:00−18s3494100 0.0 103070
09:00−18s339491 0.0 103047
12:00−15ssw249152 0.0 103085
15:00−13s239272 0.0 102990
18:00−17sse2296100 0.0 102935
21:00−15s2393100 0.0 103053
29 january, sat
sat2900:00−15s2391100 0.0 102958
03:00−19sse229639 0.0 102924
06:00−23sse2210088 0.0 102913
09:00−23se2210089 0.0 103021
12:00−16se249190 0.0 102982
15:00−14ese258994 0.0 1028115
18:00−17ese369177 0.0 102867
21:00−18ese378948 0.0 102880
30 january, sun
sun3000:00−16ese488857 0.0 1027101
03:00−17e49895 0.0 1026109
06:00−17e410895 0.0 1024141
09:00−17ese410905 0.0 1024133
12:00−15ese38925 0.0 1023176
15:00−12se36925 0.0 1022168
18:00−14ese379785 0.0 102283
21:00−12sse3897100 0.1 1022142
31 january, mon
mon3100:00−12s3598100 0.1 102268
03:00−12ssw3597100 0.1 102296
06:00−15sw3597100 0.1 102374
09:00−18sw3496100 0.0 102557
12:00−14sw3590100 0.0 1026133
15:00−12ssw3691100 0.0 1026174
18:00−14s369599 0.0 102770
21:00−15ssw37965 0.0 102883